TimeEST,TemperatureF,Dew PointF,Humidity,Sea Level PressureIn,VisibilityMPH,Wind Direction,Wind SpeedMPH,Gust SpeedMPH,PrecipitationIn,Events,Conditions,WindDirDegrees,DateUTC
12:00 AM,35.6,35.6,100,30.44,10.0,NE,3.5,-,N/A,,Clear,50,2012-11-19 05:00:00
12:38 AM,-9999,-9999,N/A,-9999,2.5,ENE,4.6,-,N/A,,Clear,60,2012-11-19 05:38:00
12:47 AM,-9999,-9999,N/A,-9999,1.5,ENE,3.5,-,N/A,,Clear,60,2012-11-19 05:47:00
1:00 AM,35,35,99,30.43,1,ENE,3.5,,,,Mist,60,2012-11-19 06:00:00
1:00 AM,35.6,35.6,100,30.43,0.6,ENE,3.5,-,N/A,,Clear,60,2012-11-19 06:00:00
1:21 AM,-9999,-9999,N/A,-9999,0.1,ENE,2.3,-,N/A,Fog,Fog,70,2012-11-19 06:21:00
2:00 AM,33.8,33.8,100,30.41,0.1,Calm,Calm,-,N/A,Fog,Fog,0,2012-11-19 07:00:00
3:00 AM,32.0,32.0,100,30.42,0.1,East,2.3,-,N/A,Fog,Fog,80,2012-11-19 08:00:00
3:52 AM,-9999,-9999,N/A,-9999,0.5,Calm,Calm,-,N/A,Fog,Light Freezing Fog,0,2012-11-19 08:52:00
4:00 AM,32.0,32.0,100,30.40,0.6,NE,2.3,-,N/A,,Clear,40,2012-11-19 09:00:00
4:45 AM,-9999,-9999,N/A,-9999,0.4,East,3.5,-,N/A,Fog,Light Freezing Fog,90,2012-11-19 09:45:00
5:00 AM,30.2,30.2,100,30.40,0.2,East,3.5,-,N/A,Fog,Light Freezing Fog,90,2012-11-19 10:00:00
6:00 AM,28.4,28.4,100,30.40,0.4,NNW,3.5,-,N/A,Fog,Light Freezing Fog,340,2012-11-19 11:00:00
6:41 AM,-9999,-9999,N/A,-9999,0.1,NE,2.3,-,N/A,Fog,Light Freezing Fog,50,2012-11-19 11:41:00
7:00 AM,30,30,100,30.40,0,NE,2.3,,,Fog,Partial Fog,50,2012-11-19 12:00:00
7:00 AM,30.2,30.2,100,30.40,0.4,NE,2.3,-,N/A,Fog,Light Freezing Fog,50,2012-11-19 12:00:00
8:00 AM,32.0,32.0,100,30.41,0.2,Calm,Calm,-,N/A,Fog,Light Freezing Fog,0,2012-11-19 13:00:00
8:14 AM,-9999,-9999,N/A,-9999,0.6,NNE,2.3,-,N/A,Fog,Scattered Clouds,20,2012-11-19 13:14:00
8:29 AM,-9999,-9999,N/A,-9999,3.0,Calm,Calm,-,N/A,,Mostly Cloudy,0,2012-11-19 13:29:00
9:00 AM,33.8,33.8,100,30.40,6.0,NNE,2.3,-,N/A,,Mostly Cloudy,20,2012-11-19 14:00:00
10:00 AM,41.0,41.0,100,30.39,6.0,ENE,3.5,-,N/A,,Mostly Cloudy,60,2012-11-19 15:00:00
11:00 AM,44.6,42.8,93,30.39,6.0,East,2.3,-,N/A,,Mostly Cloudy,90,2012-11-19 16:00:00
12:00 PM,50.0,42.8,76,30.37,8.0,ESE,2.3,-,N/A,,Mostly Cloudy,110,2012-11-19 17:00:00
1:00 PM,52,38,48,30.33,7,SSE,4.6,,,,Partly Cloudy,150,2012-11-19 18:00:00
1:00 PM,51.8,37.4,58,30.33,8.0,South,5.8,-,N/A,,Mostly Cloudy,170,2012-11-19 18:00:00
2:00 PM,53.6,37.4,54,30.31,12.0,SSE,5.8,-,N/A,,Overcast,150,2012-11-19 19:00:00
3:00 PM,53.6,39.2,58,30.30,12.0,South,3.5,-,N/A,,Mostly Cloudy,170,2012-11-19 20:00:00
4:00 PM,51.8,41.0,67,30.29,12.0,South,2.3,-,N/A,,Mostly Cloudy,180,2012-11-19 21:00:00
5:00 PM,48.2,35.6,62,30.27,11.0,SSE,4.6,-,N/A,,Mostly Cloudy,150,2012-11-19 22:00:00
6:00 PM,46.4,37.4,71,30.27,15.0,SE,4.6,-,N/A,,Overcast,130,2012-11-19 23:00:00
7:00 PM,44,38,71,30.27,12,SSE,2.3,,,,Overcast,160,2012-11-20 00:00:00
7:00 PM,44.6,37.4,76,30.27,12.0,SSE,2.3,-,N/A,,Overcast,160,2012-11-20 00:00:00
8:00 PM,42.8,37.4,81,30.26,10.0,Calm,Calm,-,N/A,,Overcast,0,2012-11-20 01:00:00
9:00 PM,41.0,39.2,93,30.25,10.0,Calm,Calm,-,N/A,,Overcast,0,2012-11-20 02:00:00
10:00 PM,39.2,37.4,93,30.23,8.0,Calm,Calm,-,N/A,,Overcast,0,2012-11-20 03:00:00
11:00 PM,41.0,39.2,93,30.22,7.0,Calm,Calm,-,N/A,,Overcast,0,2012-11-20 04:00:00